Location: Le Gr�zie
(43.6000°N, 13.5000°E)
Time: 02:26:59
(UTC+00:00)

SL-08 R/B - Pass Details

Date: 09 April 2020
Orbit: 951 x 1017 km, 82.9° (Epoch: 05 June)

Event Time Altitude Azimuth Distance (km) Brightness Sun altitude
Rises 20:27:02 0° 350° (N) 3,643 8.3 -26.9°
Reaches altitude 10° 20:29:32 10° 349° (N) 2,698 7.5 -27.2°
Maximum altitude 20:35:41 76° 266° (W) 1,000 4.5 -28.0°
Enters shadow 20:36:41 62° 204° (SSW) 1,083 4.5 -28.1°
